{"data":{"norad_id":44311,"epoch":"2026-05-25T04:46:06.350304Z","epoch_age_seconds":61098,"freshness":"FRESH","line1":"1 44311U 19032B   26145.19868461  .00006869  00000+0  26109-3 0  9998","line2":"2 44311  44.9693 135.5899 0025077 198.8984 161.0970 15.27252905384230","mean_motion":15.27252905,"eccentricity":0.0025077,"inclination_deg":44.9693,"raan_deg":135.5899,"arg_perigee_deg":198.8984,"mean_anomaly_deg":161.097,"bstar":0.00026109,"rev_number":38423,"period_min":94.286938023536,"perigee_km":466.82045799128,"apogee_km":501.23696389795,"semimajor_km":6862.1657109446,"source":"CELESTRAK","updated_at":"2026-05-25T13:37:55.965443Z"}}